Starlink 30573

operational
NORAD ID: 58058 Int'l Des: 2023-158 Owner: SPXS Country: US Constellation: starlink
LEOCIRCULAR

Über Starlink 30573

Beschreibung wird geladen...

Live-Position

3D-Globus wird geladen...

Nächste Überflüge

Höhenverlauf

Altitude vs Time

uPlot chart will show altitude changes over time

Zweizeiliger Elementsatz

1 58058U 23158H 25353.66799044 .00001045 00000-0 92397-4 0 9992
2 58058 43.0033 105.1790 0001442 272.1811 87.8867 15.02533513121496
Epoch: 19. Dez. 2025 • Age: 11 hours

Aktueller Status

Höhe 564.7 km
Geschwindigkeit 7.58 km/s
Subsatellitenpunkt -25.30°S, 61.97°W
Startdatum 13. Okt. 2023
Alter 2.1 years
Typ internet

Technische Details

Klassifizierung Payload
Masse 730.00 kg
Trockenmasse 700.00 kg
Gesamtmasse 730.00 kg
Länge 0.30 m
Durchmesser 4.10 m
Spannweite 29.00 m
Form Box + pan
Hersteller SPXS
Bus-Typ Starlink V2M
Phasenstatus In Orbit
Besitzer/Staat SPXS/US

Große Konstellationen

Loading constellations...